Tracking 19817 objects as of 18-Aug-2019
HD Live streaming from Space Station
objects crossing your sky now

COSMOS 2251 DEB

Track COSMOS 2251 DEB now!
10-day predictions


NORAD ID: 33766
Int'l Code: 1993-036P
Perigee: 753.9 km
Apogee: 852.2 km
Inclination: 74.2 °
Period: 100.8 minutes
Semi major axis: 7174 km
RCS: 0.3164 m2 (medium)
Launch date: June 16, 1993
Source: Commonwealth of Independent States (former USSR) (CIS)
Launch site: PLESETSK MISSILE AND SPACE COMPLEX (PKMTR)

Note: This is SATELLITE DEBRIS
aabbcc
Your satellite tracking list
Your tracking list is empty




NASA's NSSDC Master Catalog

Two Line Element Set (TLE):
1 33766U 93036P   19229.15786588  .00000120  00000-0  55643-4 0  9997
2 33766  74.1910 338.5692 0068523 112.5393 248.3029 14.28742023547257
Source of the keplerian elements: AFSPC